Temp
-14 -14 -15 -15 -15 -15 -14 -14 -14 -14 -14 -14 -14 -15 -16 -16 -16 -16 -15 -15 -15 -15 -14 -14 -14 -13 -13 -13 -13 -13 -12 -12 -12 -12 -11 -12 -12 -12 -12 -12 -12 -12 -11
-15 -15 -15 -15 -15 -15 -15 -15 -15 -15 -15 -15 -15 -16 -16 -16 -16 -16 -15 -16 -16 -15 -15 -14 -14 -14 -14 -13 -13 -13 -14 -12 -12 -12 -12 -13 -12 -12 -12 -12 -13 -13 -13
-16 -16 -16 -16 -15 -15 -15 -15 -15 -15 -16 -16 -16 -16 -16 -16 -16 -16 -16 -16 -17 -17 -16 -16 -16 -15 -14 -14 -14 -14 -14 -13 -13 -13 -13 -12 -13 -13 -13 -12 -13 -13 -13
-16 -16 -16 -16 -16 -16 -16 -16 -16 -16 -16 -16 -16 -16 -16 -17 -17 -17 -17 -17 -16 -17 -17 -17 -17 -17 -16 -15 -14 -14 -14 -14 -14 -14 -13 -13 -12 -13 -13 -13 -13 -13 -13
-16 -16 -16 -16 -16 -16 -16 -16 -16 -16 -17 -16 -16 -16 -16 -16 -17 -17 -17 -18 -18 -17 -17 -17 -17 -17 -17 -16 -16 -15 -15 -14 -15 -14 -14 -13 -13 -13 -13 -13 -13 -13 -12
-16 -16 -16 -16 -16 -16 -16 -16 -16 -17 -17 -17 -16 -16 -16 -17 -17 -17 -17 -18 -18 -18 -18 -18 -17 -17 -17 -17 -17 -17 -16 -15 -15 -15 -15 -14 -13 -14 -13 -13 -13 -12 -14
-17 -16 -17 -17 -17 -16 -16 -16 -17 -17 -17 -17 -17 -17 -17 -17 -17 -17 -17 -17 -18 -18 -18 -18 -19 -18 -18 -18 -18 -18 -17 -17 -16 -16 -16 -15 -15 -14 -14 -14 -13 -12 -13
-17 -17 -17 -17 -17 -16 -16 -17 -17 -17 -17 -17 -17 -17 -17 -17 -17 -18 -18 -18 -18 -19 -18 -19 -19 -19 -19 -18 -18 -18 -18 -18 -17 -17 -17 -16 -16 -15 -15 -14 -13 -13 -13
-18 -17 -17 -17 -17 -16 -17 -17 -17 -17 -17 -17 -17 -17 -17 -18 -18 -18 -18 -18 -19 -19 -19 -20 -20 -20 -19 -19 -19 -18 -18 -18 -18 -18 -18 -17 -16 -16 -15 -15 -15 -14 -14
-18 -18 -17 -17 -17 -17 -17 -17 -18 -17 -17 -17 -17 -17 -18 -18 -19 -19 -19 -19 -19 -20 -20 -21 -21 -21 -20 -20 -19 -19 -19 -19 -18 -18 -18 -19 -19 -18 -18 -16 -16 -15 -15
-18 -18 -17 -17 -17 -17 -17 -18 -17 -17 -17 -17 -17 -18 -19 -19 -20 -19 -20 -20 -20 -20 -20 -21 -21 -21 -21 -20 -20 -20 -19 -19 -19 -19 -19 -19 -19 -18 -19 -18 -18 -18 -17
-18 -18 -17 -17 -17 -17 -18 -18 -17 -17 -17 -17 -18 -18 -19 -19 -19 -20 -20 -19 -20 -20 -20 -21 -21 -21 -21 -21 -21 -20 -20 -20 -19 -20 -20 -20 -19 -19 -20 -19 -19 -18 -18
-18 -18 -17 -17 -17 -17 -18 -17 -17 -17 -17 -18 -18 -19 -19 -20 -20 -20 -20 -20 -20 -20 -21 -21 -21 -21 -21 -21 -21 -21 -20 -20 -20 -20 -20 -20 -20 -19 -20 -19 -19 -19 -19
-18 -17 -17 -17 -17 -17 -18 -18 -18 -17 -18 -19 -19 -20 -20 -20 -20 -20 -20 -20 -21 -20 -21 -21 -22 -21 -22 -21 -21 -21 -21 -20 -20 -20 -20 -20 -20 -20 -20 -19 -19 -20 -19
-18 -17 -17 -17 -17 -18 -18 -18 -18 -18 -19 -19 -19 -20 -20 -21 -20 -20 -20 -20 -21 -21 -21 -21 -22 -22 -22 -22 -21 -21 -21 -21 -20 -20 -20 -20 -21 -20 -20 -20 -20 -20 -20
-18 -17 -17 -17 -17 -18 -18 -18 -18 -19 -19 -19 -20 -20 -21 -21 -21 -21 -20 -20 -21 -21 -21 -21 -21 -22 -21 -21 -21 -21 -21 -21 -21 -20 -20 -21 -20 -20 -20 -20 -20 -20 -20
-17 -17 -17 -17 -17 -18 -18 -18 -18 -19 -19 -19 -20 -21 -21 -21 -21 -21 -21 -21 -21 -21 -21 -21 -21 -22 -21 -22 -22 -22 -21 -21 -20 -20 -20 -20 -20 -20 -20 -20 -20 -20 -20
-18 -17 -17 -17 -18 -18 -18 -18 -19 -19 -19 -20 -20 -21 -22 -21 -21 -21 -21 -21 -21 -21 -21 -21 -21 -21 -21 -22 -22 -22 -21 -20 -21 -21 -21 -21 -20 -21 -20 -20 -20 -20 -19
-18 -18 -17 -18 -18 -18 -18 -18 -19 -19 -20 -20 -20 -21 -21 -21 -21 -21 -21 -21 -21 -21 -21 -21 -21 -21 -21 -21 -21 -21 -21 -21 -21 -20 -21 -21 -20 -20 -20 -20 -20 -20 -20
-18 -18 -18 -18 -18 -19 -19 -18 -18 -19 -20 -20 -20 -21 -21 -21 -21 -21 -21 -21 -21 -21 -21 -21 -21 -21 -21 -21 -21 -21 -21 -21 -21 -21 -21 -21 -21 -21 -21 -21 -21 -21 -21
-18 -18 -18 -18 -19 -19 -19 -18 -19 -19 -19 -19 -20 -21 -21 -21 -21 -21 -21 -21 -21 -21 -21 -21 -21 -21 -21 -21 -21 -21 -21 -21 -20 -20 -21 -21 -21 -21 -21 -21 -21 -21 -23
-18 -18 -18 -19 -19 -19 -19 -19 -19 -19 -19 -19 -20 -20 -21 -21 -21 -21 -21 -22 -22 -21 -21 -21 -21 -21 -21 -21 -21 -21 -21 -21 -21 -21 -21 -21 -21 -21 -21 -21 -22 -22 -22
-19 -19 -19 -19 -19 -19 -19 -19 -19 -20 -20 -19 -20 -20 -20 -20 -21 -21 -21 -21 -21 -21 -21 -21 -21 -21 -21 -21 -21 -21 -21 -21 -21 -21 -21 -21 -21 -21 -21 -22 -22 -22 -22
-19 -19 -19 -19 -19 -19 -19 -19 -19 -20 -20 -20 -20 -20 -20 -20 -20 -20 -21 -21 -21 -21 -21 -21 -21 -21 -21 -21 -21 -21 -21 -21 -21 -21 -21 -21 -21 -22 -22 -22 -22 -22 -22
-19 -19 -19 -19 -20 -19 -20 -19 -19 -20 -20 -20 -20 -20 -20 -20 -20 -20 -20 -20 -21 -21 -21 -20 -21 -21 -21 -21 -21 -21 -21 -21 -21 -22 -22 -22 -22 -22 -22 -22 -22 -23 -23
-19 -19 -19 -20 -20 -20 -20 -20 -20 -20 -20 -20 -20 -20 -20 -20 -20 -20 -20 -20 -21 -21 -21 -21 -21 -21 -21 -21 -21 -21 -21 -21 -21 -22 -22 -22 -22 -22 -22 -23 -23 -23 -23
Height
5736 5735 5735 5734 5731 5729 5727 5724 5722 5719 5717 5714 5712 5709 5706 5705 5705 5704 5701 5700 5700 5701 5701 5707 5707 5709 5714 5716 5720 5725 5729 5732 5740 5742 5746 5750 5753 5758 5760 5764 5770 5772 5776
5729 5728 5727 5725 5723 5720 5718 5715 5712 5709 5706 5702 5699 5697 5696 5693 5689 5687 5689 5686 5681 5684 5687 5688 5691 5695 5697 5701 5706 5711 5716 5720 5726 5730 5735 5740 5747 5750 5751 5752 5756 5761 5765
5720 5720 5719 5716 5713 5711 5708 5705 5702 5698 5695 5691 5688 5685 5682 5680 5677 5673 5671 5673 5671 5665 5671 5673 5675 5676 5681 5685 5690 5695 5700 5707 5712 5718 5723 5729 5734 5737 5739 5742 5745 5748 5753
5714 5711 5709 5706 5703 5701 5698 5695 5691 5688 5683 5679 5677 5673 5670 5667 5664 5662 5659 5655 5656 5655 5653 5657 5661 5662 5664 5669 5673 5678 5683 5688 5697 5703 5709 5714 5723 5722 5728 5734 5736 5738 5743
5705 5703 5700 5697 5694 5690 5687 5683 5680 5676 5672 5668 5664 5661 5659 5655 5653 5650 5647 5644 5640 5641 5640 5641 5645 5649 5649 5653 5658 5662 5667 5676 5680 5689 5694 5702 5707 5712 5716 5720 5725 5726 5730
5695 5693 5690 5687 5683 5680 5676 5672 5668 5664 5660 5656 5652 5649 5646 5642 5640 5637 5635 5632 5630 5629 5629 5628 5629 5633 5637 5640 5644 5648 5653 5660 5665 5673 5678 5688 5691 5696 5705 5707 5709 5715 5720
5686 5682 5679 5676 5673 5670 5666 5661 5656 5652 5647 5643 5639 5635 5632 5629 5626 5624 5621 5620 5618 5617 5617 5616 5616 5618 5622 5626 5630 5634 5640 5647 5652 5658 5665 5672 5678 5684 5689 5692 5697 5702 5706
5676 5671 5668 5666 5663 5660 5655 5650 5645 5640 5635 5630 5625 5621 5617 5614 5611 5609 5607 5605 5603 5602 5603 5602 5602 5604 5607 5613 5618 5624 5629 5636 5640 5646 5652 5659 5664 5671 5677 5678 5684 5689 5692
5666 5662 5659 5657 5653 5649 5644 5639 5634 5628 5623 5617 5611 5606 5601 5597 5595 5593 5591 5589 5587 5585 5585 5586 5586 5588 5594 5600 5607 5613 5621 5626 5631 5635 5641 5646 5652 5657 5663 5667 5670 5675 5679
5656 5652 5650 5647 5643 5640 5635 5629 5624 5618 5612 5605 5598 5592 5587 5583 5580 5577 5576 5573 5572 5570 5570 5571 5571 5574 5580 5587 5596 5602 5611 5617 5622 5627 5632 5637 5643 5647 5650 5654 5659 5664 5667
5647 5645 5643 5639 5636 5631 5625 5619 5614 5607 5600 5592 5585 5579 5575 5572 5568 5564 5561 5559 5558 5556 5558 5559 5559 5563 5570 5577 5586 5594 5602 5609 5614 5619 5625 5630 5637 5639 5641 5645 5650 5653 5656
5639 5637 5635 5631 5627 5621 5615 5610 5603 5596 5589 5581 5574 5568 5564 5560 5556 5552 5550 5548 5546 5545 5546 5547 5549 5555 5563 5569 5578 5587 5595 5602 5608 5613 5617 5623 5627 5630 5633 5637 5641 5644 5646
5632 5630 5627 5623 5618 5612 5607 5601 5593 5585 5578 5571 5565 5558 5553 5550 5546 5543 5541 5538 5537 5535 5535 5536 5540 5548 5556 5564 5573 5580 5589 5597 5602 5607 5611 5616 5620 5625 5626 5630 5633 5635 5638
5625 5623 5620 5615 5610 5604 5599 5593 5584 5575 5569 5561 5554 5549 5545 5542 5539 5536 5534 5533 5530 5531 5528 5527 5536 5543 5551 5559 5568 5575 5582 5590 5597 5601 5605 5608 5613 5617 5620 5622 5625 5628 5630
5619 5616 5613 5608 5603 5597 5591 5584 5576 5567 5560 5552 5545 5541 5538 5536 5533 5531 5530 5528 5526 5527 5527 5531 5535 5536 5546 5557 5565 5570 5577 5584 5591 5595 5600 5603 5606 5610 5613 5615 5617 5619 5621
5612 5609 5606 5601 5596 5590 5584 5577 5568 5560 5552 5544 5539 5537 5535 5533 5531 5529 5527 5527 5526 5525 5526 5528 5531 5538 5545 5556 5562 5568 5574 5580 5586 5591 5594 5598 5601 5604 5606 5608 5610 5612 5614
5605 5603 5600 5595 5589 5583 5577 5571 5561 5553 5545 5539 5537 5536 5534 5531 5530 5529 5528 5527 5525 5525 5526 5530 5535 5541 5548 5555 5560 5566 5571 5576 5581 5586 5589 5593 5596 5598 5600 5601 5603 5605 5607
5599 5596 5593 5588 5583 5577 5572 5564 5555 5548 5540 5537 5535 5534 5533 5530 5529 5529 5530 5529 5528 5528 5528 5533 5538 5542 5547 5553 5559 5564 5569 5573 5578 5582 5585 5588 5590 5591 5593 5594 5595 5596 5597
5593 5591 5587 5583 5577 5572 5567 5559 5552 5544 5539 5535 5534 5533 5532 5529 5528 5529 5531 5531 5531 5533 5534 5537 5540 5544 5548 5554 5559 5563 5566 5570 5574 5577 5579 5582 5584 5585 5586 5587 5587 5588 5587
5587 5585 5582 5578 5573 5568 5562 5555 5549 5542 5537 5534 5534 5533 5531 5529 5529 5530 5531 5533 5534 5535 5536 5538 5542 5546 5549 5554 5557 5560 5563 5567 5570 5573 5575 5577 5578 5579 5580 5579 5579 5577 5576
5581 5580 5577 5574 5569 5564 5559 5552 5546 5540 5535 5533 5534 5533 5533 5531 5531 5531 5532 5532 5533 5535 5537 5539 5542 5545 5549 5552 5555 5558 5561 5564 5566 5568 5570 5571 5572 5573 5571 5570 5569 5569 5568
5576 5575 5573 5570 5566 5562 5557 5551 5545 5540 5535 5533 5535 5535 5535 5534 5533 5533 5534 5534 5535 5537 5538 5540 5542 5545 5547 5550 5553 5555 5558 5560 5561 5562 5564 5565 5564 5564 5564 5565 5564 5565 5565
5571 5570 5568 5566 5563 5559 5555 5550 5546 5541 5536 5535 5536 5536 5535 5535 5535 5535 5536 5537 5537 5538 5539 5541 5542 5544 5546 5548 5550 5551 5552 5554 5555 5556 5557 5557 5558 5558 5559 5559 5559 5559 5559
5565 5565 5564 5563 5561 5557 5554 5551 5546 5543 5540 5537 5536 5535 5534 5534 5535 5537 5538 5538 5538 5539 5540 5540 5541 5542 5543 5545 5546 5547 5549 5550 5551 5551 5552 5552 5553 5554 5555 5554 5554 5554 5553
5560 5560 5560 5559 5558 5556 5552 5550 5547 5544 5542 5539 5538 5537 5537 5538 5537 5537 5538 5538 5538 5538 5539 5540 5541 5541 5542 5543 5544 5545 5547 5547 5548 5548 5549 5550 5550 5550 5550 5549 5548 5548 5547
5554 5555 5556 5555 5555 5554 5552 5549 5547 5545 5544 5542 5540 5539 5539 5538 5538 5537 5537 5536 5536 5537 5539 5540 5541 5542 5542 5542 5543 5544 5545 5545 5546 5547 5547 5547 5546 5545 5545 5544 5543 5543 5541
Wind_Speed
33 34 34 34 35 38 40 40 41 42 43 44 45 44 45 46 47 49 50 52 51 53 56 56 62 67 67 68 66 63 62 64 58 58 62 60 41 43 51 67 59 51 48
33 33 34 34 37 39 40 40 41 43 44 46 44 41 44 47 51 51 47 48 55 54 56 58 58 63 68 70 70 69 66 67 69 67 62 61 52 48 43 50 67 55 47
34 34 35 37 40 40 40 39 41 43 44 43 42 43 43 45 48 50 52 48 47 53 50 56 58 60 64 68 70 70 70 69 69 66 63 60 47 52 49 45 60 65 58
35 36 37 39 40 41 39 39 41 43 42 43 42 41 39 35 36 38 44 53 52 51 53 50 52 58 60 61 65 67 69 70 69 67 64 63 60 48 53 55 36 34 56
38 36 37 39 39 40 39 41 43 43 42 45 41 40 40 38 39 42 38 43 41 49 52 53 51 50 58 57 57 60 64 67 67 65 65 66 65 64 61 66 65 47 44
38 34 36 38 39 39 40 43 45 44 43 44 43 43 42 39 42 42 40 39 41 43 41 45 51 52 53 56 55 54 56 61 62 62 66 63 68 63 59 64 66 69 64
36 34 36 37 37 38 40 44 46 46 45 46 45 45 46 47 44 45 46 47 47 46 48 47 48 51 53 53 54 53 50 51 54 58 59 63 66 64 63 65 67 65 62
34 35 37 36 37 39 42 45 48 47 48 47 47 49 48 48 50 50 48 48 51 51 52 55 54 52 50 52 52 52 48 45 46 49 46 56 60 62 63 67 66 64 62
34 35 35 35 36 40 44 47 47 45 45 48 47 47 44 49 50 49 50 50 49 49 50 49 51 53 51 49 50 50 45 42 39 39 43 47 51 56 61 62 64 62 60
32 33 33 34 37 41 44 45 43 44 44 47 50 44 39 43 46 47 48 45 44 41 40 41 44 48 46 48 46 49 43 39 36 33 35 38 37 41 45 56 57 56 56
31 30 32 34 37 41 43 42 43 45 43 47 42 37 35 37 39 41 40 36 38 36 36 38 39 40 41 45 45 44 41 36 32 28 32 33 41 41 43 43 44 41 44
29 30 31 34 37 41 43 42 43 42 44 40 35 35 35 32 35 33 31 33 30 32 34 34 34 36 37 39 39 40 37 33 30 28 30 33 40 39 34 40 40 36 34
29 31 31 33 37 41 41 41 41 41 41 35 35 33 32 31 31 26 27 25 28 24 22 28 29 34 37 37 36 38 35 31 29 27 30 32 37 40 36 36 36 37 37
29 29 29 33 38 41 40 39 39 40 37 36 32 29 29 26 21 21 23 15 15 11 16 23 17 27 37 36 33 35 34 32 28 25 31 35 34 33 36 39 42 43 40
29 27 28 33 38 39 37 37 40 38 36 37 29 24 18 16 18 14 9 11 9 13 9 19 21 25 32 30 34 34 35 32 29 28 36 28 29 35 33 41 41 38 40
25 25 29 34 38 36 37 37 38 36 35 29 19 12 11 12 3 3 4 4 3 12 15 11 16 21 37 32 34 33 31 29 27 24 23 29 31 33 34 34 33 35 33
22 24 29 33 36 35 36 37 35 34 30 20 11 10 13 8 3 7 3 3 2 3 11 11 13 27 39 33 29 30 28 29 28 29 28 26 28 29 32 35 33 33 34
21 24 28 32 32 34 35 35 31 28 22 13 10 11 14 6 9 6 2 2 5 13 21 14 19 15 22 29 26 25 28 28 26 24 26 24 23 26 21 26 30 32 36
21 23 27 28 30 33 34 31 29 25 19 10 7 7 10 5 3 3 5 3 5 10 10 13 10 14 16 15 19 22 26 25 22 21 22 25 23 24 27 28 33 37 40
20 22 25 26 28 31 32 30 29 25 19 7 7 6 8 4 4 3 6 6 7 5 7 13 18 15 18 23 19 21 24 22 22 22 22 23 21 26 26 26 26 30 32
20 21 22 22 25 28 30 28 28 27 16 5 5 5 6 5 2 5 5 6 9 9 10 11 12 18 20 16 18 19 23 23 23 23 22 22 24 28 26 24 19 18 19
19 18 19 19 22 25 26 26 25 26 13 2 2 5 4 2 3 4 5 6 7 7 8 8 10 11 13 15 16 17 18 20 21 20 24 27 22 21 17 20 20 22 20
18 16 16 16 19 22 23 24 21 21 14 2 1 2 2 1 2 5 5 6 7 7 8 8 9 11 13 14 16 17 18 16 20 26 24 19 15 16 17 19 21 21 23
16 15 13 13 15 19 20 19 17 16 14 7 1 3 4 6 5 5 6 6 3 5 7 11 13 13 15 15 17 20 24 22 18 15 12 12 14 16 17 18 20 23 25
16 14 12 12 12 15 17 15 13 12 13 12 7 4 5 7 6 6 7 9 10 9 9 11 13 14 14 15 12 13 12 11 8 7 9 12 13 16 18 18 20 23 26
17 14 12 10 10 11 13 11 10 5 8 11 11 9 6 2 2 1 3 4 6 6 6 8 8 8 8 7 7 6 5 4 4 6 8 10 12 15 17 20 23 26 29
Wind_Direction
289 289 289 291 289 288 290 291 290 291 292 297 296 291 288 283 277 273 278 273 268 263 261 256 253 249 247 246 246 247 245 245 242 241 248 254 266 253 252 240 241 242 246
289 290 290 288 286 289 291 290 293 296 299 298 293 289 288 283 283 279 272 273 272 265 260 257 254 252 250 247 246 245 244 245 246 246 250 251 249 259 256 252 237 238 244
291 292 290 288 288 289 288 291 296 301 297 292 291 293 290 284 280 278 277 272 268 269 263 256 256 253 250 249 247 246 245 244 245 246 246 247 248 250 252 256 247 235 235
296 292 290 288 286 288 290 292 298 298 292 292 293 291 290 291 289 289 288 279 266 263 265 259 254 256 253 250 249 247 248 247 245 246 246 245 236 238 252 257 240 240 241
294 291 288 286 287 289 290 294 299 297 291 296 290 287 285 291 296 293 293 285 282 272 265 261 257 253 255 253 251 249 247 247 248 246 246 245 246 246 250 249 252 246 240
297 291 285 285 287 291 295 297 300 297 292 296 289 286 279 282 288 288 284 286 279 278 272 269 262 256 251 252 251 250 248 246 245 245 246 244 248 250 248 250 251 250 251
301 290 283 283 289 293 295 298 300 299 294 295 289 287 279 276 278 279 276 276 281 281 270 270 266 258 252 247 247 248 248 247 246 244 244 244 245 247 249 251 251 254 256
297 288 286 286 291 295 300 301 300 297 298 299 296 292 285 277 278 276 273 274 274 271 264 267 267 256 247 247 243 244 246 249 248 245 246 242 243 244 246 249 251 253 255
283 283 284 288 295 301 301 301 300 301 300 297 295 292 289 279 275 277 272 275 275 273 268 267 263 251 242 238 238 239 241 245 245 244 242 242 243 241 243 247 252 253 256
291 288 289 295 299 299 300 303 303 303 296 297 296 288 292 291 277 277 280 276 278 276 268 265 263 243 238 230 232 233 236 240 244 242 238 233 232 233 241 245 250 252 255
286 287 290 295 298 303 306 305 308 300 299 302 299 294 296 296 290 285 279 278 279 273 260 265 255 239 232 228 227 226 230 235 236 236 235 226 225 244 239 247 250 252 255
284 287 292 296 304 308 308 310 307 303 307 303 300 301 300 294 298 292 283 284 274 266 268 266 241 231 228 227 222 217 221 226 231 230 230 227 221 233 247 250 252 251 253
280 287 294 304 310 309 312 311 308 313 312 308 308 300 300 292 293 292 289 277 275 271 263 245 230 230 222 226 218 212 214 210 224 226 232 229 232 235 244 247 248 251 254
280 286 298 308 312 314 314 313 315 318 316 316 307 301 298 294 293 292 286 273 286 253 231 226 240 227 216 220 215 210 207 213 218 219 238 233 228 239 243 244 250 251 257
280 290 303 311 314 317 315 318 322 321 321 318 307 304 302 308 296 285 270 297 255 218 192 223 235 217 206 216 216 209 205 208 214 219 228 243 236 241 246 243 259 257 255
281 295 308 312 316 317 318 322 327 324 326 319 315 319 319 309 304 8 333 127 298 248 230 223 206 188 191 214 220 206 207 207 215 221 226 237 244 248 248 251 257 254 262
288 303 308 313 319 319 321 329 329 327 328 322 319 324 327 301 226 4 350 220 17 184 172 172 178 196 205 212 208 211 209 209 216 221 228 242 248 254 258 257 257 254 258
294 302 310 316 321 319 327 337 336 336 332 327 327 330 326 294 238 254 232 108 108 128 136 148 168 187 192 208 207 211 210 213 225 229 237 241 254 256 262 256 256 259 267
293 302 312 320 320 321 335 343 342 345 341 320 314 324 347 347 232 236 203 194 156 152 196 162 163 171 163 188 209 217 213 220 230 235 240 246 260 260 266 270 268 274 279
293 305 314 321 320 325 340 344 344 349 340 300 295 340 2 352 267 220 204 198 164 161 162 179 203 204 201 213 230 226 219 229 236 244 249 251 255 268 265 278 273 282 276
294 304 313 319 321 329 342 344 346 350 344 279 277 7 15 13 149 190 221 206 206 188 176 189 193 204 216 218 226 225 230 237 246 250 258 261 258 264 268 284 282 282 286
288 299 309 319 322 331 343 343 352 355 356 250 248 41 22 18 154 160 157 144 145 160 168 178 185 195 204 213 223 232 240 249 257 260 266 260 255 261 263 266 267 257 259
280 292 303 316 320 330 343 342 351 359 4 34 148 104 9 198 167 140 140 142 145 173 181 194 207 210 218 222 222 220 238 252 255 250 254 241 249 259 264 265 264 268 270
273 283 297 308 316 329 340 342 343 4 24 36 171 205 201 186 165 139 147 159 196 221 213 221 226 225 227 226 241 237 244 261 251 239 239 249 257 260 262 263 268 274 279
265 273 285 296 307 327 334 340 336 358 29 39 29 329 243 214 205 232 256 254 254 253 258 249 246 248 250 252 234 228 216 215 231 254 262 265 266 268 274 285 293 292 287
257 263 267 279 292 320 330 337 340 349 20 32 35 41 49 93 189 70 49 100 137 171 178 169 175 176 173 171 167 166 182 207 251 268 275 282 291 296 297 293 287 278 274